Terminal Aerodrome Forecast
Issued by NWS Boise, ID

Home | Current Version | Previous Version | Text Only | Print | Product List | Glossary On
Versions: 1 2 3 4 5 6 7 8 9 10 11 12 13 14 15 16 17 18 19 20 21 22 23 24 25 26 27 28 29 30 31 32 33 34 35 36 37 38 39 40 41 42 43 44
000
FTUS45 KBOI 291139
TAFBOI
TAF
KBOI 291139Z 2912/3012 VRB05KT 1/2SM FZFG OVC002
     FM291600 VRB05KT 2SM -SHSN BR OVC005
     FM292300 VRB05KT 4SM BR VCSH BKN020
     FM300200 VRB04KT 1/2SM FZFG VCSH OVC002=

USA.gov is the U.S. government's official web portal to all federal, state and local government web resources and services.